Time,TemperatureF,DewpointF,PressureIn,WindDirection,WindDirectionDegrees,WindSpeedMPH,WindSpeedGustMPH,Humidity,HourlyPrecipIn,Conditions,Clouds,dailyrainin,SoftwareType,DateUTC
2013-01-18 00:09:00,18.4,12.0,30.15,NNE,25,6.0,-999.0,75,-99.99,,,0.00,weatherlink.com 1.10,2013-01-18 05:09:00,
2013-01-18 00:24:00,18.4,11.0,30.15,NNW,327,0.0,-999.0,73,-99.99,,,0.00,weatherlink.com 1.10,2013-01-18 05:24:00,
2013-01-18 00:39:00,18.3,11.0,30.16,NNW,327,0.0,-999.0,73,-99.99,,,0.00,weatherlink.com 1.10,2013-01-18 05:39:00,
2013-01-18 00:54:00,18.4,11.0,30.16,NE,46,0.0,-999.0,74,-99.99,,,0.00,weatherlink.com 1.10,2013-01-18 05:54:00,
2013-01-18 01:09:00,18.3,12.0,30.16,NNE,30,0.0,-999.0,77,-99.99,,,0.00,weatherlink.com 1.10,2013-01-18 06:09:00,
2013-01-18 01:24:00,18.0,13.0,30.17,NE,41,7.0,-999.0,81,-99.99,,,0.00,weatherlink.com 1.10,2013-01-18 06:24:00,
2013-01-18 01:54:00,17.0,13.0,30.19,East,95,6.0,-999.0,85,-99.99,,,0.00,weatherlink.com 1.10,2013-01-18 06:54:00,
2013-01-18 02:09:00,16.7,13.0,30.20,NNE,17,5.0,-999.0,86,-99.99,,,0.00,weatherlink.com 1.10,2013-01-18 07:09:00,
2013-01-18 02:24:00,16.3,13.0,30.21,East,82,5.0,-999.0,86,-99.99,,,0.00,weatherlink.com 1.10,2013-01-18 07:24:00,
2013-01-18 02:39:00,16.1,13.0,30.22,ENE,65,2.0,-999.0,86,-99.99,,,0.00,weatherlink.com 1.10,2013-01-18 07:39:00,
2013-01-18 02:54:00,15.9,13.0,30.23,NE,42,0.0,-999.0,86,-99.99,,,0.00,weatherlink.com 1.10,2013-01-18 07:54:00,
2013-01-18 03:09:00,15.9,13.0,30.24,NE,56,0.0,-999.0,86,-99.99,,,0.00,weatherlink.com 1.10,2013-01-18 08:09:00,
2013-01-18 03:24:00,15.7,12.0,30.25,NNE,20,1.0,-999.0,85,-99.99,,,0.00,weatherlink.com 1.10,2013-01-18 08:24:00,
2013-01-18 03:39:00,15.6,12.0,30.25,NNE,12,0.0,-999.0,84,-99.99,,,0.00,weatherlink.com 1.10,2013-01-18 08:39:00,
2013-01-18 03:54:00,15.4,12.0,30.26,NE,45,0.0,-999.0,85,-99.99,,,0.00,weatherlink.com 1.10,2013-01-18 08:54:00,
2013-01-18 04:09:00,15.4,12.0,30.25,NE,44,0.0,-999.0,86,-99.99,,,0.00,weatherlink.com 1.10,2013-01-18 09:09:00,
2013-01-18 04:24:00,15.3,12.0,30.26,NE,44,0.0,-999.0,87,-99.99,,,0.00,weatherlink.com 1.10,2013-01-18 09:24:00,
2013-01-18 04:39:00,15.2,12.0,30.27,NE,46,0.0,-999.0,87,-99.99,,,0.00,weatherlink.com 1.10,2013-01-18 09:39:00,
2013-01-18 04:54:00,14.9,12.0,30.28,NE,46,0.0,-999.0,87,-99.99,,,0.00,weatherlink.com 1.10,2013-01-18 09:54:00,
2013-01-18 05:10:00,14.7,12.0,30.29,NE,46,0.0,-999.0,88,-99.99,,,0.00,weatherlink.com 1.10,2013-01-18 10:10:00,
2013-01-18 05:25:00,14.5,12.0,30.30,NE,46,0.0,-999.0,88,-99.99,,,0.00,weatherlink.com 1.10,2013-01-18 10:25:00,
2013-01-18 05:40:00,14.4,12.0,30.31,NE,46,1.0,-999.0,88,-99.99,,,0.00,weatherlink.com 1.10,2013-01-18 10:40:00,
2013-01-18 05:55:00,14.4,12.0,30.31,ENE,59,1.0,-999.0,88,-99.99,,,0.00,weatherlink.com 1.10,2013-01-18 10:55:00,
2013-01-18 06:10:00,14.1,11.0,30.32,SSE,148,1.0,-999.0,88,-99.99,,,0.00,weatherlink.com 1.10,2013-01-18 11:10:00,
2013-01-18 06:25:00,13.5,11.0,30.33,SSW,196,2.0,-999.0,88,-99.99,,,0.00,weatherlink.com 1.10,2013-01-18 11:25:00,
2013-01-18 06:40:00,13.1,10.0,30.34,SSW,196,0.0,-999.0,88,-99.99,,,0.00,weatherlink.com 1.10,2013-01-18 11:40:00,
2013-01-18 06:55:00,13.2,11.0,30.35,SSW,196,1.0,-999.0,89,-99.99,,,0.00,weatherlink.com 1.10,2013-01-18 11:55:00,
2013-01-18 07:10:00,13.5,11.0,30.34,SSW,196,3.0,-999.0,88,-99.99,,,0.00,weatherlink.com 1.10,2013-01-18 12:10:00,
2013-01-18 07:25:00,13.8,11.0,30.35,SW,228,3.0,-999.0,88,-99.99,,,0.00,weatherlink.com 1.10,2013-01-18 12:25:00,
2013-01-18 07:40:00,13.5,11.0,30.36,SW,228,2.0,-999.0,88,-99.99,,,0.00,weatherlink.com 1.10,2013-01-18 12:40:00,
2013-01-18 07:55:00,13.4,10.0,30.36,SW,228,2.0,-999.0,87,-99.99,,,0.00,weatherlink.com 1.10,2013-01-18 12:55:00,
2013-01-18 08:25:00,14.1,11.0,30.37,SW,230,2.0,-999.0,88,-99.99,,,0.00,weatherlink.com 1.10,2013-01-18 13:25:00,
2013-01-18 08:40:00,14.9,12.0,30.38,WSW,253,2.0,-999.0,88,-99.99,,,0.00,weatherlink.com 1.10,2013-01-18 13:40:00,
2013-01-18 08:55:00,15.8,13.0,30.39,West,262,3.0,-999.0,88,-99.99,,,0.00,weatherlink.com 1.10,2013-01-18 13:55:00,
2013-01-18 09:10:00,15.9,13.0,30.39,West,264,0.0,-999.0,87,-99.99,,,0.00,weatherlink.com 1.10,2013-01-18 14:10:00,
2013-01-18 09:24:00,16.0,13.0,30.40,WSW,257,1.0,-999.0,87,-99.99,,,0.00,weatherlink.com 1.10,2013-01-18 14:24:00,
2013-01-18 09:55:00,18.1,14.0,30.40,West,279,2.0,-999.0,85,-99.99,,,0.00,weatherlink.com 1.10,2013-01-18 14:55:00,
2013-01-18 10:10:00,18.6,14.0,30.40,NE,42,3.0,-999.0,83,-99.99,,,0.00,weatherlink.com 1.10,2013-01-18 15:10:00,
2013-01-18 10:25:00,18.5,15.0,30.41,NNW,339,1.0,-999.0,84,-99.99,,,0.00,weatherlink.com 1.10,2013-01-18 15:25:00,
2013-01-18 10:40:00,18.9,15.0,30.42,North,11,0.0,-999.0,86,-99.99,,,0.00,weatherlink.com 1.10,2013-01-18 15:40:00,
2013-01-18 10:55:00,19.2,16.0,30.41,NE,38,2.0,-999.0,86,-99.99,,,0.00,weatherlink.com 1.10,2013-01-18 15:55:00,
2013-01-18 11:11:00,19.2,16.0,30.41,NNE,16,2.0,-999.0,86,-99.99,,,0.00,weatherlink.com 1.10,2013-01-18 16:11:00,
2013-01-18 11:26:00,19.8,16.0,30.40,NW,319,4.0,-999.0,86,-99.99,,,0.00,weatherlink.com 1.10,2013-01-18 16:26:00,
2013-01-18 11:41:00,20.3,17.0,30.40,North,9,0.0,-999.0,85,-99.99,,,0.00,weatherlink.com 1.10,2013-01-18 16:41:00,
2013-01-18 11:56:00,20.2,16.0,30.39,NW,313,1.0,-999.0,84,-99.99,,,0.00,weatherlink.com 1.10,2013-01-18 16:56:00,
2013-01-18 12:11:00,20.5,17.0,30.39,North,360,0.0,-999.0,85,-99.99,,,0.00,weatherlink.com 1.10,2013-01-18 17:11:00,
2013-01-18 12:26:00,20.6,17.0,30.39,NNE,26,0.0,-999.0,86,-99.99,,,0.00,weatherlink.com 1.10,2013-01-18 17:26:00,
2013-01-18 12:41:00,21.0,18.0,30.39,NW,319,0.0,-999.0,87,-99.99,,,0.00,weatherlink.com 1.10,2013-01-18 17:41:00,
2013-01-18 12:56:00,22.6,19.0,30.38,North,360,0.0,-999.0,86,-99.99,,,0.00,weatherlink.com 1.10,2013-01-18 17:56:00,
2013-01-18 13:11:00,22.9,18.0,30.38,NNE,14,0.0,-999.0,81,-99.99,,,0.00,weatherlink.com 1.10,2013-01-18 18:11:00,
2013-01-18 13:26:00,23.5,19.0,30.37,North,11,0.0,-999.0,81,-99.99,,,0.00,weatherlink.com 1.10,2013-01-18 18:26:00,
2013-01-18 13:56:00,24.2,14.0,30.37,West,271,4.0,-999.0,66,-99.99,,,0.00,weatherlink.com 1.10,2013-01-18 18:56:00,
2013-01-18 14:11:00,23.4,11.0,30.37,NW,325,2.0,-999.0,59,-99.99,,,0.00,weatherlink.com 1.10,2013-01-18 19:11:00,
2013-01-18 14:41:00,23.5,10.0,30.36,NE,55,2.0,-999.0,56,-99.99,,,0.00,weatherlink.com 1.10,2013-01-18 19:41:00,
2013-01-18 14:56:00,23.4,8.0,30.36,West,277,6.0,-999.0,53,-99.99,,,0.00,weatherlink.com 1.10,2013-01-18 19:56:00,
2013-01-18 15:11:00,23.5,9.0,30.35,SW,221,5.0,-999.0,55,-99.99,,,0.00,weatherlink.com 1.10,2013-01-18 20:11:00,
2013-01-18 15:41:00,23.2,9.0,30.35,West,277,4.0,-999.0,56,-99.99,,,0.00,weatherlink.com 1.10,2013-01-18 20:41:00,
2013-01-18 15:56:00,23.3,10.0,30.35,WNW,285,7.0,-999.0,57,-99.99,,,0.00,weatherlink.com 1.10,2013-01-18 20:56:00,
2013-01-18 16:11:00,23.0,10.0,30.35,SW,232,5.0,-999.0,58,-99.99,,,0.00,weatherlink.com 1.10,2013-01-18 21:11:00,
2013-01-18 16:26:00,22.7,10.0,30.34,WSW,255,0.0,-999.0,58,-99.99,,,0.00,weatherlink.com 1.10,2013-01-18 21:26:00,
2013-01-18 16:42:00,22.0,10.0,30.34,SW,233,2.0,-999.0,59,-99.99,,,0.00,weatherlink.com 1.10,2013-01-18 21:42:00,
2013-01-18 16:57:00,21.4,10.0,30.34,SW,230,0.0,-999.0,61,-99.99,,,0.00,weatherlink.com 1.10,2013-01-18 21:57:00,
2013-01-18 17:12:00,20.7,9.0,30.33,SW,230,0.0,-999.0,62,-99.99,,,0.00,weatherlink.com 1.10,2013-01-18 22:12:00,
2013-01-18 17:42:00,21.4,11.0,30.32,South,190,0.0,-999.0,65,-99.99,,,0.00,weatherlink.com 1.10,2013-01-18 22:42:00,
2013-01-18 17:57:00,22.0,11.0,30.31,SSW,206,6.0,-999.0,64,-99.99,,,0.00,weatherlink.com 1.10,2013-01-18 22:57:00,
2013-01-18 18:12:00,22.5,12.0,30.31,SW,227,9.0,-999.0,63,-99.99,,,0.00,weatherlink.com 1.10,2013-01-18 23:12:00,
2013-01-18 18:27:00,22.6,12.0,30.30,WSW,238,4.0,-999.0,63,-99.99,,,0.00,weatherlink.com 1.10,2013-01-18 23:27:00,
2013-01-18 19:12:00,23.8,13.0,30.29,SW,227,6.0,-999.0,63,-99.99,,,0.00,weatherlink.com 1.10,2013-01-19 00:12:00,
2013-01-18 19:27:00,24.0,13.0,30.29,SW,236,7.0,-999.0,63,-99.99,,,0.00,weatherlink.com 1.10,2013-01-19 00:27:00,
2013-01-18 19:42:00,24.3,13.0,30.28,SW,223,6.0,-999.0,62,-99.99,,,0.00,weatherlink.com 1.10,2013-01-19 00:42:00,
2013-01-18 19:57:00,24.6,13.0,30.28,SW,221,7.0,-999.0,61,-99.99,,,0.00,weatherlink.com 1.10,2013-01-19 00:57:00,
2013-01-18 20:12:00,25.0,13.0,30.27,SSW,209,7.0,-999.0,60,-99.99,,,0.00,weatherlink.com 1.10,2013-01-19 01:12:00,
2013-01-18 20:27:00,25.4,13.0,30.25,SW,227,8.0,-999.0,60,-99.99,,,0.00,weatherlink.com 1.10,2013-01-19 01:27:00,
2013-01-18 20:42:00,25.8,13.0,30.25,SW,217,14.0,-999.0,59,-99.99,,,0.00,weatherlink.com 1.10,2013-01-19 01:42:00,
2013-01-18 20:57:00,25.8,13.0,30.23,SW,229,9.0,-999.0,59,-99.99,,,0.00,weatherlink.com 1.10,2013-01-19 01:57:00,
2013-01-18 21:12:00,26.0,13.0,30.21,SW,215,8.0,-999.0,59,-99.99,,,0.00,weatherlink.com 1.10,2013-01-19 02:12:00,
2013-01-18 21:27:00,26.3,14.0,30.20,SW,229,9.0,-999.0,59,-99.99,,,0.00,weatherlink.com 1.10,2013-01-19 02:27:00,
2013-01-18 21:42:00,26.6,13.0,30.18,WSW,245,10.0,-999.0,58,-99.99,,,0.00,weatherlink.com 1.10,2013-01-19 02:42:00,
2013-01-18 21:58:00,26.8,14.0,30.18,SW,227,16.0,-999.0,58,-99.99,,,0.00,weatherlink.com 1.10,2013-01-19 02:58:00,
2013-01-18 22:13:00,26.8,14.0,30.16,WSW,240,13.0,-999.0,58,-99.99,,,0.00,weatherlink.com 1.10,2013-01-19 03:13:00,
2013-01-18 22:28:00,27.3,14.0,30.15,South,178,12.0,-999.0,57,-99.99,,,0.00,weatherlink.com 1.10,2013-01-19 03:28:00,
2013-01-18 22:43:00,27.8,14.0,30.13,SW,215,20.0,-999.0,57,-99.99,,,0.00,weatherlink.com 1.10,2013-01-19 03:43:00,
2013-01-18 22:58:00,28.1,14.0,30.12,SW,217,10.0,-999.0,56,-99.99,,,0.00,weatherlink.com 1.10,2013-01-19 03:58:00,
2013-01-18 23:13:00,28.4,15.0,30.11,SW,232,13.0,-999.0,58,-99.99,,,0.00,weatherlink.com 1.10,2013-01-19 04:13:00,
2013-01-18 23:28:00,29.5,15.0,30.12,SW,234,9.0,-999.0,55,-99.99,,,0.00,weatherlink.com 1.10,2013-01-19 04:28:00,
2013-01-18 23:43:00,29.9,15.0,30.12,SW,232,14.0,-999.0,54,-99.99,,,0.00,weatherlink.com 1.10,2013-01-19 04:43:00,